Weather History for El Centro, CA

Change the Weather History Date:

Tuesday, April 30, 2013

  Actual Average Record
Temperature  
Mean Temperature 86 °F -  
Max Temperature 100 °F 86 °F 100 °F (2013)
Min Temperature 73 °F 61 °F 53 °F (1999)
Cooling Degree Days 22    
Growing Degree Days 36 (Base 50)    
Moisture  
Dew Point 33 °F    
Average Humidity 16    
Maximum Humidity 31    
Minimum Humidity 5    
Precipitation  
Precipitation 0.00 in - - ()
Sea Level Pressure  
Sea Level Pressure 29.67 in    
Wind  
Wind Speed 17 mph (SW)    
Max Wind Speed 26 mph    
Max Gust Speed 31 mph    
Visibility 10 miles    
Events      
Averages and records for this station are not official NWS values.
T = Trace of Precipitation, MM = Missing Value Source: NWS Daily Summary

Daily Weather History Graph

Daily Weather History Graph

Search for Another Location

Airport:

Trip Planner

Search our weather history database for the weather conditions in past years. The results will help you decide how hot, cold, wet, or windy it might be!

Date:

Astronomy

Apr. 30, 2013 Rise Set
Actual Time 5:56 AM PDT 7:24 PM PDT
Civil Twilight 5:29 AM PDT 7:50 PM PDT
Nautical Twilight 4:58 AM PDT 8:21 PM PDT
Astronomical Twilight 4:25 AM PDT 8:54 PM PDT
Moon No Moon Rise 10:32 AM PDT (4/30)
Length of Visible Light 14h 20m
Length of Day
13h 27m
Waning Gibbous, 69% of the Moon is Illuminated
Apr 30
Waning Gibbous
May 2
Last Quarter
May 9
New
May 17
First Quarter
May 24
Full

Hourly Weather History & Observations

Time (PDT) Temp. Dew Point Humidity Pressure Visibility Wind Dir Wind Speed Gust Speed Precip Events Conditions
12:56 AM 82.9 °F 18.0 °F 9% 29.68 in 10.0 mi West 19.6 mph 29.9 mph N/A   Clear
1:56 AM 84.0 °F 10.9 °F 6% 29.67 in 10.0 mi WSW 23.0 mph 28.8 mph N/A   Clear
2:56 AM 82.9 °F 9.0 °F 6% 29.66 in 10.0 mi West 24.2 mph - N/A   Clear
3:56 AM 82.9 °F 6.1 °F 5% 29.65 in 10.0 mi West 26.5 mph - N/A   Clear
4:56 AM 82.0 °F 12.9 °F 7% 29.66 in 10.0 mi West 19.6 mph - N/A   Clear
5:56 AM 75.9 °F 19.0 °F 12% 29.68 in 10.0 mi SW 8.1 mph - N/A   Clear
6:56 AM 73.9 °F 33.1 °F 22% 29.69 in 10.0 mi SSW 5.8 mph - N/A   Partly Cloudy
7:56 AM 75.0 °F 42.1 °F 31% 29.70 in 10.0 mi SSE 9.2 mph - N/A   Partly Cloudy
8:56 AM 80.1 °F 43.0 °F 27% 29.71 in 10.0 mi ESE 10.4 mph - N/A   Partly Cloudy
9:56 AM 87.1 °F 39.9 °F 19% 29.71 in 10.0 mi SE 10.4 mph - N/A   Clear
10:56 AM 90.0 °F 41.0 °F 18% 29.71 in 10.0 mi SE 10.4 mph - N/A   Clear
11:56 AM 93.0 °F 42.1 °F 17% 29.70 in 10.0 mi ESE 8.1 mph - N/A   Partly Cloudy
12:56 PM 96.1 °F 36.0 °F 12% 29.69 in 10.0 mi SE 9.2 mph - N/A   Clear
1:56 PM 98.1 °F 36.0 °F 11% 29.67 in 10.0 mi SE 10.4 mph 17.3 mph N/A   Partly Cloudy
2:45 PM 100.4 °F 21.2 °F 6% 29.61 in 10.0 mi SW 20.7 mph 26.5 mph N/A   Clear
2:56 PM 100.9 °F 25.0 °F 7% 29.65 in 10.0 mi WSW 20.7 mph 27.6 mph N/A   Clear
3:56 PM 100.0 °F 32.0 °F 9% 29.63 in 10.0 mi WSW 25.3 mph 31.1 mph N/A   Clear
4:56 PM 97.0 °F 41.0 °F 14% 29.63 in 10.0 mi WSW 20.7 mph 27.6 mph N/A   Clear
5:56 PM 93.9 °F 39.9 °F 15% 29.63 in 10.0 mi WSW 24.2 mph 31.1 mph N/A   Clear
6:56 PM 88.0 °F 44.1 °F 22% 29.64 in 10.0 mi WSW 15.0 mph - N/A   Clear
7:56 PM 84.9 °F 44.1 °F 24% 29.65 in 10.0 mi WSW 15.0 mph - N/A   Clear
8:56 PM 82.0 °F 44.1 °F 26% 29.68 in 10.0 mi WSW 13.8 mph - N/A   Clear
9:56 PM 81.0 °F 45.0 °F 28% 29.70 in 10.0 mi WSW 17.3 mph - N/A   Clear
10:56 PM 79.0 °F 44.1 °F 29% 29.71 in 10.0 mi West 15.0 mph - N/A   Clear
11:56 PM 77.0 °F 43.0 °F 30% 29.72 in 10.0 mi West 19.6 mph - N/A   Clear